User: anonymous   Login
Location: *
(58.7167°N, 26.1833°E)
Time: 16:40:38
(UTC+00:00)
Language:

Genesis I - Orbit

View from above orbital plane
View from above orbital plane
View from above satellite
View from above satellite

Ground track
Ground track

The orbit data is extracted from the following two-line orbital elements,

1 29252U 06029A   19292.76683934 +.00000444 +00000-0 +31785-4 0  9996
2 29252 064.5184 011.9435 0035718 216.0001 143.8716 15.17877453731411
Epoch (UTC): 19 October 2019 18:24:14
Eccentricity: 0.0035718
inclination: 64.5184°
perigee height: 487 km
apogee height: 537 km
right ascension of ascending node: 11.9435°
argument of perigee: 216.0001°
revolutions per day: 15.17877453
mean anomaly at epoch: 143.8716°
orbit number at epoch: 73141

The dashed part of the orbit path shows where the satellite is in the earth's shadow,  

DLR